SWA683 KSAT-KELP

Flight info

Callsign SWA683
Flight time 1h 19m
Altitude 34000
Route ALISS7 ALISS FST TXSAS BEAHR3
Aircraft B737/M-SDE2E3FGHIRWXY/LB1

Departure

Time 2026-04-28 02:06
Airport San Antonio International Airport (KSAT)

Arrival

Time 2026-04-28 03:25
Airport El Paso International Airport (KELP)
Time Latitude Longitude Altitude Speed Heading
2026-04-28 01:39 29.52708 -98.47121 797 ft 0 kts 148°
2026-04-28 01:53 29.52709 -98.47122 797 ft 2 kts 149°
2026-04-28 01:53 29.52728 -98.47132 797 ft 3 kts 168°
2026-04-28 01:53 29.52748 -98.47134 797 ft 3 kts 186°
2026-04-28 01:53 29.52768 -98.47129 797 ft 3 kts 200°
2026-04-28 01:54 29.52786 -98.47120 797 ft 3 kts 210°
2026-04-28 01:54 29.52804 -98.47107 797 ft 3 kts 217°
2026-04-28 01:54 29.52821 -98.47092 797 ft 3 kts 223°
2026-04-28 01:54 29.52835 -98.47074 797 ft 3 kts 229°
2026-04-28 01:55 29.52848 -98.47056 797 ft 3 kts 237°
2026-04-28 01:55 29.52858 -98.47035 797 ft 3 kts 259°
2026-04-28 01:55 29.52857 -98.47018 797 ft 0 kts 314°
2026-04-28 01:58 29.52858 -98.47020 797 ft 1 kts 311°
2026-04-28 01:58 29.52870 -98.47037 797 ft 5 kts 310°
2026-04-28 01:59 29.52911 -98.47047 797 ft 8 kts 26°
2026-04-28 01:59 29.52967 -98.47060 797 ft 11 kts 313°
2026-04-28 01:59 29.53027 -98.47136 797 ft 15 kts 312°
2026-04-28 01:59 29.53105 -98.47237 797 ft 18 kts 311°
2026-04-28 02:00 29.53196 -98.47355 797 ft 21 kts 312°
2026-04-28 02:00 29.53292 -98.47478 797 ft 20 kts 312°
2026-04-28 02:00 29.53385 -98.47597 797 ft 20 kts 312°
2026-04-28 02:00 29.53475 -98.47713 797 ft 19 kts 312°
2026-04-28 02:01 29.53562 -98.47824 797 ft 18 kts 312°
2026-04-28 02:01 29.53646 -98.47933 797 ft 18 kts 311°
2026-04-28 02:01 29.53726 -98.48037 797 ft 17 kts 311°
2026-04-28 02:01 29.53804 -98.48138 797 ft 17 kts 311°
2026-04-28 02:02 29.53880 -98.48234 797 ft 16 kts 312°
2026-04-28 02:02 29.53952 -98.48327 797 ft 15 kts 312°
2026-04-28 02:02 29.54022 -98.48416 797 ft 15 kts 311°
2026-04-28 02:02 29.54088 -98.48502 797 ft 14 kts 311°
2026-04-28 02:03 29.54144 -98.48573 797 ft 10 kts 312°
2026-04-28 02:03 29.54184 -98.48604 797 ft 0 kts 349°
2026-04-28 02:04 29.54185 -98.48605 797 ft 1 kts 350°
2026-04-28 02:04 29.54197 -98.48605 797 ft 3 kts
2026-04-28 02:04 29.54227 -98.48588 797 ft 6 kts 40°
2026-04-28 02:05 29.54260 -98.48548 797 ft 5 kts 79°
2026-04-28 02:05 29.54251 -98.48525 797 ft 2 kts 129°
2026-04-28 02:05 29.54235 -98.48504 797 ft 13 kts 130°
2026-04-28 02:05 29.53988 -98.48185 797 ft 94 kts 131°
2026-04-28 02:06 29.53385 -98.47409 799 ft 164 kts 131°
2026-04-28 02:06 29.52538 -98.46324 1276 ft 190 kts 132°
2026-04-28 02:06 29.51651 -98.45192 2258 ft 194 kts 132°
2026-04-28 02:06 29.50718 -98.44026 3134 ft 197 kts 134°
2026-04-28 02:07 29.49796 -98.42909 4195 ft 192 kts 135°
2026-04-28 02:07 29.48879 -98.41835 4399 ft 187 kts 137°
2026-04-28 02:07 29.47869 -98.40929 4108 ft 183 kts 156°
2026-04-28 02:07 29.46647 -98.40656 3806 ft 179 kts 183°
2026-04-28 02:08 29.45466 -98.41092 3482 ft 184 kts 212°
2026-04-28 02:08 29.44622 -98.42275 3509 ft 205 kts 244°
2026-04-28 02:08 29.44334 -98.44011 3747 ft 245 kts 268°
2026-04-28 02:08 29.44467 -98.46025 3919 ft 255 kts 273°
2026-04-28 02:09 29.44674 -98.48049 4043 ft 258 kts 278°
2026-04-28 02:09 29.45552 -98.49940 4308 ft 287 kts 317°
2026-04-28 02:09 29.47229 -98.51204 5357 ft 289 kts 329°
2026-04-28 02:09 29.48984 -98.52344 6450 ft 290 kts 329°
2026-04-28 02:10 29.50749 -98.53494 7507 ft 293 kts 328°
2026-04-28 02:10 29.52519 -98.54672 8504 ft 296 kts 328°
2026-04-28 02:10 29.54305 -98.55886 9454 ft 300 kts 327°
2026-04-28 02:10 29.56107 -98.57129 10338 ft 305 kts 326°
2026-04-28 02:11 29.57962 -98.58424 10702 ft 329 kts 326°
2026-04-28 02:11 29.59996 -98.59857 10911 ft 356 kts 326°
2026-04-28 02:11 29.62204 -98.61418 11130 ft 379 kts 326°
2026-04-28 02:11 29.64487 -98.63033 11670 ft 389 kts 326°
2026-04-28 02:12 29.66776 -98.64652 12417 ft 393 kts 326°
2026-04-28 02:12 29.69107 -98.66303 13207 ft 395 kts 325°
2026-04-28 02:12 29.71448 -98.67962 14004 ft 396 kts 325°
2026-04-28 02:12 29.73796 -98.69629 14731 ft 397 kts 324°
2026-04-28 02:13 29.76158 -98.71306 15392 ft 400 kts 324°
2026-04-28 02:13 29.78529 -98.72993 16057 ft 402 kts 324°
2026-04-28 02:13 29.80916 -98.74693 16700 ft 404 kts 324°
2026-04-28 02:13 29.83312 -98.76399 17348 ft 406 kts 324°
2026-04-28 02:14 29.85719 -98.78114 17967 ft 407 kts 323°
2026-04-28 02:14 29.88070 -98.79936 18554 ft 406 kts 317°
2026-04-28 02:14 29.90142 -98.82133 19161 ft 403 kts 307°
2026-04-28 02:14 29.91931 -98.84606 19732 ft 403 kts 305°
2026-04-28 02:15 29.95453 -98.89687 20814 ft 408 kts 304°
2026-04-28 02:15 29.97232 -98.92243 21382 ft 409 kts 304°
2026-04-28 02:15 29.99023 -98.94797 21937 ft 410 kts 305°
2026-04-28 02:16 30.00830 -98.97361 22406 ft 413 kts 305°
2026-04-28 02:16 30.02650 -98.99938 22842 ft 415 kts 304°
2026-04-28 02:16 30.04477 -99.02524 23329 ft 417 kts 304°
2026-04-28 02:16 30.06314 -99.05124 23779 ft 418 kts 304°
2026-04-28 02:17 30.08156 -99.07734 24204 ft 420 kts 304°
2026-04-28 02:17 30.09910 -99.10427 24603 ft 418 kts 298°
2026-04-28 02:17 30.11297 -99.13312 25041 ft 415 kts 291°
2026-04-28 02:17 30.12364 -99.16441 25464 ft 412 kts 283°
2026-04-28 02:18 30.13112 -99.19592 25865 ft 412 kts 282°
2026-04-28 02:18 30.13845 -99.22802 26250 ft 413 kts 282°
2026-04-28 02:18 30.14572 -99.26015 26636 ft 414 kts 282°
2026-04-28 02:18 30.15304 -99.29236 27018 ft 414 kts 282°
2026-04-28 02:19 30.16041 -99.32457 27357 ft 415 kts 282°
2026-04-28 02:19 30.16784 -99.35691 27678 ft 417 kts 282°
2026-04-28 02:19 30.17533 -99.38930 28027 ft 417 kts 282°
2026-04-28 02:19 30.18282 -99.42165 28469 ft 414 kts 282°
2026-04-28 02:20 30.19022 -99.45362 29036 ft 410 kts 282°
2026-04-28 02:20 30.19755 -99.48529 29567 ft 406 kts 282°
2026-04-28 02:20 30.20481 -99.51668 30073 ft 402 kts 283°
2026-04-28 02:20 30.21199 -99.54781 30587 ft 399 kts 283°
2026-04-28 02:21 30.21913 -99.57877 31072 ft 397 kts 283°
2026-04-28 02:21 30.22623 -99.60962 31487 ft 397 kts 283°
2026-04-28 02:21 30.23330 -99.64040 31914 ft 395 kts 282°
2026-04-28 02:21 30.24034 -99.67102 32377 ft 393 kts 283°
2026-04-28 02:22 30.24732 -99.70143 32841 ft 390 kts 283°
2026-04-28 02:22 30.25428 -99.73178 33240 ft 389 kts 283°
2026-04-28 02:22 30.26122 -99.76203 33627 ft 388 kts 283°
2026-04-28 02:22 30.26802 -99.79177 33952 ft 388 kts 283°
2026-04-28 02:23 30.27496 -99.82221 33923 ft 392 kts 283°
2026-04-28 02:23 30.28884 -99.88309 33944 ft 389 kts 283°
2026-04-28 02:24 30.30256 -99.94342 33958 ft 386 kts 283°
2026-04-28 02:24 30.31621 -100.00353 33952 ft 386 kts 283°
2026-04-28 02:25 30.32980 -100.06355 33957 ft 385 kts 283°
2026-04-28 02:25 30.34335 -100.12355 33966 ft 385 kts 283°
2026-04-28 02:26 30.35678 -100.18309 33962 ft 384 kts 283°
2026-04-28 02:26 30.37205 -100.24253 33967 ft 385 kts 285°
2026-04-28 02:27 30.38876 -100.30164 33965 ft 386 kts 285°
2026-04-28 02:27 30.40531 -100.36049 33961 ft 386 kts 285°
2026-04-28 02:28 30.42173 -100.41970 33962 ft 386 kts 285°
2026-04-28 02:28 30.43808 -100.47909 33973 ft 387 kts 285°
2026-04-28 02:29 30.45435 -100.53849 33970 ft 386 kts 284°
2026-04-28 02:29 30.47055 -100.59783 33970 ft 386 kts 284°
2026-04-28 02:30 30.48673 -100.65718 33971 ft 386 kts 284°
2026-04-28 02:30 30.50290 -100.71658 33970 ft 386 kts 284°
2026-04-28 02:31 30.51901 -100.77588 33972 ft 386 kts 284°
2026-04-28 02:31 30.53511 -100.83527 33973 ft 385 kts 284°
2026-04-28 02:32 30.55116 -100.89461 33966 ft 386 kts 284°
2026-04-28 02:32 30.56706 -100.95366 33965 ft 386 kts 284°
2026-04-28 02:33 30.58310 -101.01312 33951 ft 386 kts 284°
2026-04-28 02:33 30.59910 -101.07250 33946 ft 385 kts 284°
2026-04-28 02:34 30.61506 -101.13196 33945 ft 385 kts 284°
2026-04-28 02:34 30.63094 -101.19132 33956 ft 385 kts 284°
2026-04-28 02:35 30.64683 -101.25077 33944 ft 385 kts 283°
2026-04-28 02:35 30.66269 -101.31023 33953 ft 386 kts 283°
2026-04-28 02:36 30.67853 -101.36971 33947 ft 385 kts 283°
2026-04-28 02:36 30.69437 -101.42927 33941 ft 385 kts 283°
2026-04-28 02:37 30.70747 -101.47872 33941 ft 385 kts 283°
2026-04-28 02:37 30.72576 -101.54788 33943 ft 385 kts 283°
2026-04-28 02:38 30.73884 -101.59740 33945 ft 385 kts 283°
2026-04-28 02:38 30.75454 -101.65697 33949 ft 385 kts 283°
2026-04-28 02:39 30.77023 -101.71662 33949 ft 385 kts 283°
2026-04-28 02:39 30.78587 -101.77621 33948 ft 386 kts 283°
2026-04-28 02:40 30.80154 -101.83603 33934 ft 386 kts 283°
2026-04-28 02:40 30.81711 -101.89551 33930 ft 386 kts 283°
2026-04-28 02:41 30.83267 -101.95518 33949 ft 385 kts 283°
2026-04-28 02:41 30.84820 -102.01486 33941 ft 385 kts 283°
2026-04-28 02:42 30.86371 -102.07457 33932 ft 385 kts 283°
2026-04-28 02:42 30.87918 -102.13423 33930 ft 384 kts 282°
2026-04-28 02:43 30.89459 -102.19378 33937 ft 383 kts 282°
2026-04-28 02:43 30.90993 -102.25318 33934 ft 383 kts 282°
2026-04-28 02:44 30.92515 -102.31225 33936 ft 382 kts 282°
2026-04-28 02:44 30.94040 -102.37161 33930 ft 382 kts 282°
2026-04-28 02:45 30.95562 -102.43092 33927 ft 381 kts 282°
2026-04-28 02:45 30.97077 -102.49011 33928 ft 381 kts 282°
2026-04-28 02:46 30.98588 -102.54923 33924 ft 380 kts 282°
2026-04-28 02:46 31.00094 -102.60830 33925 ft 380 kts 282°
2026-04-28 02:47 31.01594 -102.66728 33928 ft 379 kts 282°
2026-04-28 02:47 31.03081 -102.72581 33925 ft 379 kts 282°
2026-04-28 02:48 31.04572 -102.78471 33925 ft 378 kts 282°
2026-04-28 02:48 31.06060 -102.84356 33926 ft 378 kts 282°
2026-04-28 02:49 31.07544 -102.90238 33928 ft 378 kts 282°
2026-04-28 02:49 31.09024 -102.96117 33927 ft 378 kts 282°
2026-04-28 02:50 31.10502 -103.02001 33926 ft 378 kts 282°
2026-04-28 02:50 31.11977 -103.07886 33927 ft 377 kts 281°
2026-04-28 02:51 31.13451 -103.13772 33925 ft 378 kts 281°
2026-04-28 02:51 31.14908 -103.19616 33923 ft 377 kts 281°
2026-04-28 02:52 31.16371 -103.25494 33926 ft 377 kts 281°
2026-04-28 02:52 31.17835 -103.31383 33928 ft 377 kts 281°
2026-04-28 02:53 31.19297 -103.37274 33921 ft 378 kts 281°
2026-04-28 02:53 31.20754 -103.43168 33914 ft 378 kts 281°
2026-04-28 02:54 31.22210 -103.49057 33919 ft 377 kts 281°
2026-04-28 02:54 31.23663 -103.54953 33920 ft 377 kts 281°
2026-04-28 02:55 31.25101 -103.60801 33918 ft 377 kts 281°
2026-04-28 02:55 31.26545 -103.66688 33917 ft 377 kts 281°
2026-04-28 02:56 31.27986 -103.72574 33915 ft 376 kts 280°
2026-04-28 02:56 31.29424 -103.78456 33918 ft 376 kts 280°
2026-04-28 02:57 31.30857 -103.84337 33927 ft 376 kts 280°
2026-04-28 02:57 31.32285 -103.90210 33934 ft 375 kts 280°
2026-04-28 02:58 31.33710 -103.96078 33934 ft 375 kts 280°
2026-04-28 02:58 31.35129 -104.01940 33944 ft 375 kts 280°
2026-04-28 02:59 31.36548 -104.07809 33934 ft 375 kts 280°
2026-04-28 02:59 31.37965 -104.13684 33937 ft 375 kts 280°
2026-04-28 03:00 31.39378 -104.19558 33932 ft 375 kts 280°
2026-04-28 03:00 31.40790 -104.25442 33921 ft 376 kts 279°
2026-04-28 03:01 31.42201 -104.31334 33920 ft 376 kts 279°
2026-04-28 03:01 31.43602 -104.37195 33928 ft 376 kts 279°
2026-04-28 03:02 31.45009 -104.43099 33925 ft 376 kts 279°
2026-04-28 03:02 31.45824 -104.49068 33939 ft 370 kts 271°
2026-04-28 03:03 31.46368 -104.55064 33925 ft 370 kts 272°
2026-04-28 03:03 31.46981 -104.61058 33929 ft 371 kts 272°
2026-04-28 03:04 31.47614 -104.67076 33931 ft 373 kts 272°
2026-04-28 03:04 31.48240 -104.73070 33938 ft 373 kts 272°
2026-04-28 03:05 31.48869 -104.79156 33281 ft 383 kts 272°
2026-04-28 03:05 31.49187 -104.82241 32525 ft 382 kts 272°
2026-04-28 03:05 31.49504 -104.85312 31970 ft 376 kts 272°
2026-04-28 03:05 31.49817 -104.88342 31323 ft 373 kts 272°
2026-04-28 03:06 31.50124 -104.91338 30714 ft 369 kts 272°
2026-04-28 03:06 31.50427 -104.94305 30113 ft 364 kts 272°
2026-04-28 03:06 31.50727 -104.97236 29484 ft 360 kts 272°
2026-04-28 03:06 31.51024 -105.00153 28695 ft 360 kts 272°
2026-04-28 03:07 31.51318 -105.03069 27913 ft 361 kts 272°
2026-04-28 03:07 31.51611 -105.05983 27233 ft 359 kts 272°
2026-04-28 03:07 31.51903 -105.08877 26617 ft 356 kts 272°
2026-04-28 03:07 31.52192 -105.11746 25978 ft 353 kts 272°
2026-04-28 03:08 31.52479 -105.14597 25307 ft 352 kts 271°
2026-04-28 03:08 31.52763 -105.17440 24651 ft 350 kts 271°
2026-04-28 03:08 31.53042 -105.20231 24035 ft 348 kts 271°
2026-04-28 03:08 31.53323 -105.23039 23402 ft 346 kts 271°
2026-04-28 03:09 31.53600 -105.25827 22774 ft 344 kts 271°
2026-04-28 03:09 31.53876 -105.28607 22156 ft 342 kts 271°
2026-04-28 03:09 31.54149 -105.31357 21596 ft 338 kts 271°
2026-04-28 03:09 31.54418 -105.34083 20992 ft 336 kts 272°
2026-04-28 03:10 31.54685 -105.36793 20353 ft 334 kts 271°
2026-04-28 03:10 31.54950 -105.39476 19753 ft 330 kts 271°
2026-04-28 03:10 31.55212 -105.42137 19245 ft 326 kts 271°
2026-04-28 03:10 31.55471 -105.44764 18762 ft 323 kts 271°
2026-04-28 03:11 31.55726 -105.47361 18271 ft 319 kts 271°
2026-04-28 03:11 31.55975 -105.49919 17802 ft 313 kts 271°
2026-04-28 03:11 31.56232 -105.52447 17330 ft 311 kts 271°
2026-04-28 03:11 31.56471 -105.54949 16860 ft 307 kts 271°
2026-04-28 03:12 31.56706 -105.57440 16386 ft 308 kts 271°
2026-04-28 03:12 31.56945 -105.59956 15919 ft 313 kts 271°
2026-04-28 03:12 31.57191 -105.62518 15433 ft 318 kts 272°
2026-04-28 03:12 31.57440 -105.65109 14975 ft 322 kts 272°
2026-04-28 03:13 31.57691 -105.67700 14510 ft 318 kts 272°
2026-04-28 03:13 31.57935 -105.70226 14008 ft 315 kts 272°
2026-04-28 03:13 31.58179 -105.72770 13480 ft 312 kts 272°
2026-04-28 03:13 31.58421 -105.75294 12955 ft 310 kts 273°
2026-04-28 03:14 31.58658 -105.77799 12433 ft 308 kts 273°
2026-04-28 03:14 31.59098 -105.80258 11953 ft 309 kts 287°
2026-04-28 03:14 31.60044 -105.82524 11677 ft 312 kts 295°
2026-04-28 03:14 31.61162 -105.84747 11366 ft 319 kts 297°
2026-04-28 03:15 31.62287 -105.86911 11049 ft 321 kts 297°
2026-04-28 03:15 31.63440 -105.89132 10695 ft 304 kts 297°
2026-04-28 03:15 31.64503 -105.91204 10395 ft 289 kts 297°
2026-04-28 03:15 31.65504 -105.93183 10107 ft 275 kts 297°
2026-04-28 03:16 31.66429 -105.95025 9850 ft 264 kts 297°
2026-04-28 03:16 31.67486 -105.96783 9613 ft 263 kts 306°
2026-04-28 03:16 31.68651 -105.98355 9552 ft 247 kts 308°
2026-04-28 03:16 31.69763 -105.99809 9421 ft 232 kts 308°
2026-04-28 03:17 31.70806 -106.01176 9308 ft 218 kts 307°
2026-04-28 03:17 31.72708 -106.03707 8918 ft 200 kts 307°
2026-04-28 03:17 31.73600 -106.04906 8673 ft 197 kts 307°
2026-04-28 03:18 31.74498 -106.06122 8432 ft 198 kts 307°
2026-04-28 03:18 31.75405 -106.07357 8190 ft 201 kts 307°
2026-04-28 03:18 31.76317 -106.08595 7966 ft 199 kts 308°
2026-04-28 03:18 31.77215 -106.09811 7714 ft 196 kts 308°
2026-04-28 03:19 31.78098 -106.11010 7450 ft 193 kts 308°
2026-04-28 03:19 31.78965 -106.12194 7194 ft 191 kts 308°
2026-04-28 03:19 31.79835 -106.13385 6951 ft 194 kts 309°
2026-04-28 03:19 31.80719 -106.14596 6707 ft 196 kts 309°
2026-04-28 03:20 31.81604 -106.15803 6453 ft 194 kts 309°
2026-04-28 03:20 31.82486 -106.17006 6203 ft 195 kts 310°
2026-04-28 03:20 31.83374 -106.18216 5998 ft 196 kts 310°
2026-04-28 03:20 31.84256 -106.19429 5963 ft 192 kts 310°
2026-04-28 03:21 31.85108 -106.20594 5919 ft 183 kts 310°
2026-04-28 03:21 31.85932 -106.21721 5926 ft 182 kts 310°
2026-04-28 03:21 31.86742 -106.22831 5947 ft 179 kts 310°
2026-04-28 03:21 31.87554 -106.23940 5932 ft 179 kts 310°
2026-04-28 03:22 31.88344 -106.25026 5917 ft 170 kts 308°
2026-04-28 03:22 31.88783 -106.26250 5969 ft 159 kts 278°
2026-04-28 03:22 31.88733 -106.27555 5904 ft 160 kts 253°
2026-04-28 03:22 31.88211 -106.28695 5778 ft 159 kts 233°
2026-04-28 03:23 31.87522 -106.29678 5561 ft 153 kts 233°
2026-04-28 03:23 31.86852 -106.30615 5366 ft 147 kts 233°
2026-04-28 03:23 31.86199 -106.31526 5186 ft 145 kts 234°
2026-04-28 03:23 31.85545 -106.32443 4989 ft 147 kts 234°
2026-04-28 03:24 31.84889 -106.33363 4791 ft 146 kts 234°
2026-04-28 03:24 31.84236 -106.34277 4593 ft 146 kts 233°
2026-04-28 03:24 31.83566 -106.35201 4373 ft 152 kts 233°
2026-04-28 03:24 31.82891 -106.36165 4177 ft 153 kts 231°
2026-04-28 03:25 31.82216 -106.37110 3978 ft 149 kts 230°
2026-04-28 03:25 31.81618 -106.37948 3946 ft 110 kts 230°
2026-04-28 03:25 31.81262 -106.38447 3947 ft 50 kts 230°
2026-04-28 03:25 31.81047 -106.38746 3948 ft 45 kts 230°
2026-04-28 03:26 31.80871 -106.38989 3947 ft 30 kts 229°
2026-04-28 03:26 31.80699 -106.39106 3946 ft 28 kts 199°
2026-04-28 03:26 31.80521 -106.39181 3946 ft 26 kts 200°
2026-04-28 03:26 31.80364 -106.39248 3946 ft 20 kts 200°
2026-04-28 03:27 31.80292 -106.39279 3946 ft 15 kts 200°
2026-04-28 03:27 31.80206 -106.39296 3946 ft 13 kts 157°
2026-04-28 03:27 31.80142 -106.39227 3946 ft 12 kts 134°
2026-04-28 03:27 31.80058 -106.39141 3946 ft 12 kts 165°
2026-04-28 03:28 31.80004 -106.39148 3946 ft 12 kts 200°
2026-04-28 03:28 31.79961 -106.39202 3946 ft 6 kts 250°
2026-04-28 03:28 31.79950 -106.39245 3946 ft 5 kts 254°
2026-04-28 03:28 31.79939 -106.39285 3946 ft 5 kts 250°
2026-04-28 03:29 31.79929 -106.39326 3946 ft 6 kts 256°
2026-04-28 03:29 31.79928 -106.39374 3946 ft 6 kts 297°
2026-04-28 03:29 31.79960 -106.39403 3946 ft 4 kts 337°
2026-04-28 03:29 31.79971 -106.39408 3946 ft 0 kts 336°
2026-04-28 03:31 31.79970 -106.39408 3946 ft 0 kts 336°